Location: Newark
(41.4073°N, 2.1486°E)
Time: 00:18:17
(UTC+00:00)

Hubble Space Telescope - Visible Passes

Search period start: 10 December 2019 00:00
Search period end: 20 December 2019 00:00
Orbit: 536 x 540 km, 28.5° (Epoch: 08 December)

Date Brightness Start Highest point End Pass type
(mag) Time Alt. Az. Time Alt. Az. Time Alt. Az.
16 Dec 3.4 06:34:22 10° SSW 06:36:27 13° S 06:38:31 10° SSE visible
17 Dec 3.5 04:44:46 10° S 04:45:20 11° SSE 04:46:13 10° SSE visible
17 Dec 3.4 06:23:39 10° SSW 06:25:42 13° S 06:27:46 10° SSE visible
18 Dec 3.5 04:34:57 12° SSE 04:34:57 12° SSE 04:36:03 10° SSE visible
18 Dec 3.3 06:13:00 10° SSW 06:14:58 13° S 06:16:57 10° SSE visible
19 Dec 3.6 04:25:04 11° SSE 04:25:04 11° SSE 04:25:38 10° SSE visible
19 Dec 3.3 06:02:26 10° SSW 06:04:14 13° S 06:06:02 10° SSE visible
